Regional Weather Roundup
Issued by NWS

Home | Current Version | Previous Version | Graphics & Text | Print | Product List | Glossary On
Versions: 1 2 3 4 5 6 7 8 9 10 11 12 13 14 15 16 17 18 19 20 21 22 23 24 25 26 27 28 29 30 31 32 33 34 35 36 37 38 39 40 41 42 43 44 45 46 47 48 49 50
929
ASUS44 KLIX 280005
RWRLA
LOUISIANA WEATHER ROUNDUP
NATIONAL WEATHER SERVICE NEW ORLEANS LA
600 PM CST FRI FEB 27 2015

NOTE: "FAIR" INDICATES FEW OR NO CLOUDS BELOW 12,000 FEET WITH NO
      SIGNIFICANT WEATHER AND/OR OBSTRUCTIONS TO VISIBILITY.
      SKY/WX - SKY CONDITION AND SIGNIFICANT WEATHER.
      TMP - AIR TEMPERATURE.    DP   - DEWPOINT TEMPERATURE.
      RH  - RELATIVE HUMIDITY.  PRES - PRESSURE.
      HX  - HEAT INDEX.         WCI  - WIND CHILL INDEX.

*  THESE STATIONS ARE NOT NWS OR FAA STATIONS AND ARE NOT UNDER
   NWS QUALITY CONTROL.

LAZ040-048-061>063-065-066-069-280100-
SOUTHEAST LOUISIANA

CITY           SKY/WX    TMP DP  RH WIND       PRES   REMARKS
N.O. AUDUBON     N/A     50  38  65 MISG        N/A
6HR MIN TEMP:  49; 6HR MAX TEMP:  55;

N.O. INTL ARPT PTCLDY    49  34  56 N14       30.32R
6HR MIN TEMP:  47; 6HR MAX TEMP:  52;

N.O. LAKEFRONT CLEAR     53  36  52 N17       30.32S
6HR MIN TEMP:  48; 6HR MAX TEMP:  54;

SLIDELL        CLEAR     48  32  53 N9        30.32S
6HR MIN TEMP:  48; 6HR MAX TEMP:  55;

BATON ROUGE    CLEAR     49  31  49 NE8       30.33R
6HR MIN TEMP:  45; 6HR MAX TEMP:  53;

BOOTHVILLE     MOCLDY    50  39  66 NE8       30.31S
6HR MIN TEMP:  47; 6HR MAX TEMP:  51;

BELLE CHASSE   PTCLDY    51  31  46 NE7       30.31R
6HR MIN TEMP:  50; 6HR MAX TEMP:  55;

BOGALUSA*        N/A     46  33  61 N5        30.37R
6HR MIN TEMP:  46; 6HR MAX TEMP:  51;

GALLIANO*      CLEAR     51  34  52 MISG      30.31S
6HR MIN TEMP:  50; 6HR MAX TEMP:  55;

NEW ROADS*     FAIR      46  32  57 NW14      30.34R
6HR MIN TEMP:  44; 6HR MAX TEMP:  52;

GONZALES*      FAIR      51  33  50 N5        30.32R
6HR MIN TEMP:  47; 6HR MAX TEMP:  54;

HAMMOND*       CLEAR     48  30  49 NE3       30.36R
HOUMA*         CLEAR     48  34  57 N9        30.31R
PORT FOURCHON* CLEAR     48  37  66 NE16G26   30.33S

$$

LAZ041-044-053-054-280100-
SOUTHWEST LOUISIANA

CITY           SKY/WX    TMP DP  RH WIND       PRES   REMARKS
LAKE CHARLES   CLEAR     48  33  56 E10       30.33S
6HR MIN TEMP:  43; 6HR MAX TEMP:  51;

LAFAYETTE      CLEAR     49  34  56 N10       30.33R
6HR MIN TEMP:  45; 6HR MAX TEMP:  52;

PATTERSON      CLEAR     50  34  53 E8        30.33R
6HR MIN TEMP:  46; 6HR MAX TEMP:  54;

SALT POINT       N/A     51  35  54 VRB3      30.30R
6HR MIN TEMP:  48; 6HR MAX TEMP:  54;

NEW IBERIA     CLEAR     50  34  54 N9        30.33R
6HR MIN TEMP:  48; 6HR MAX TEMP:  55;

CHENAULT AIRPK CLEAR     48  36  61 E7        30.34

$$

LAZ027-028-280100-
CENTRAL LOUISIANA

CITY           SKY/WX    TMP DP  RH WIND       PRES   REMARKS
FORT POLK      MOCLDY    43  28  54 N10       30.35R
6HR MIN TEMP:  42; 6HR MAX TEMP:  49;

ALEXANDRIA INT CLOUDY    40  26  57 NE12      30.38R WCI  33
6HR MIN TEMP:  40; 6HR MAX TEMP:  48;

ALEXANDRIA     CLOUDY    41  25  53 VRB6      30.39R
6HR MIN TEMP:  41; 6HR MAX TEMP:  48;


$$

LAZ001-002-280100-
NORTHWEST LOUISIANA

CITY           SKY/WX    TMP DP  RH WIND       PRES   REMARKS
SHREVEPORT     CLOUDY    33  20  58 NE14      30.45S WCI  23
6HR MIN TEMP:  33; 6HR MAX TEMP:  36;

BARKSDALE AFB  CLOUDY    32  19  57 NE5       30.46S WCI  28
6HR MIN TEMP:  32; 6HR MAX TEMP:  35;

DTN SHREVEPORT CLOUDY    32  17  54 NE7       30.46S WCI  26
6HR MIN TEMP:  32; 6HR MAX TEMP:  34;


$$

LAZ014-016-280100-
NORTHEAST LOUISIANA

CITY           SKY/WX    TMP DP  RH WIND       PRES   REMARKS
MONROE         CLOUDY    33  24  69 NE12      30.48S WCI  24
6HR MIN TEMP:  32; 6HR MAX TEMP:  36;

TALLULAH       PTCLDY    34  27  75 N18       30.45S WCI  23
6HR MIN TEMP:  34; 6HR MAX TEMP:  41;


$$




USA.gov is the U.S. government's official web portal to all federal, state and local government web resources and services.